Location: Fernhill
(41.0167°S, 175.6333°E)
Time: 02:29:31
(UTC+00:00)

ADEOS - Pass Details

Date: 08 November 2025
Orbit: 790 x 791 km, 98.8° (Epoch: 13 December)

Event Time Altitude Azimuth Distance (km) Brightness Sun altitude
Rises 09:08:55 0° 164° (SSE) 3,327 7.2 -19.8°
Reaches altitude 10° 09:11:18 10° 160° (SSE) 2,390 6.4 -20.2°
Maximum altitude 09:16:33 65° 78° (ENE) 880 3.5 -20.8°
Enters shadow 09:18:19 40° 13° (NNE) 1,156 4.0 -21.1°
